When you browse on this site, cookies collect data to enhance your experience and personalize the content and advertising you see.
Visit our Privacy Policy to learn more. By continuing to use the site, you agree to this use of cookies and data.
  • In Austria
  • List of Countries
  • For 7 days
  • Water Temperature
  • Satellite Maps
  • Weather Map
  • News
  • Weather Widgets
  • user-avatar
    Login

    Hourly Weather Lankaran

    Today, 24 March, Sunday

    Time Temperature Precipitation Wind Pressure Humidity
    00:00 +4°C° 0 mm 2 mps 629 mmHg 56%
    01:00 +4°C° 0 mm 2 mps 629 mmHg 56%
    02:00 +3°C° 0 mm 2 mps 628 mmHg 56%
    03:00 +2°C° 0 mm 3 mps 628 mmHg 55%
    04:00 +2°C° 0 mm 3 mps 628 mmHg 57%
    05:00 +3°C° 0 mm 2 mps 628 mmHg 60%
    06:00 +2°C° 0 mm 2 mps 628 mmHg 62%
    07:00 +3°C° 0 mm 3 mps 628 mmHg 57%
    08:00 +5°C° 0 mm 3 mps 629 mmHg 52%
    09:00 +7°C° 0 mm 4 mps 629 mmHg 47%
    10:00 +7°C° 0 mm 4 mps 629 mmHg 46%
    11:00 +8°C° 0 mm 4 mps 629 mmHg 46%
    12:00 +10°C° 0 mm 4 mps 629 mmHg 45%
    13:00 +8°C° 0 mm 4 mps 629 mmHg 50%
    14:00 +7°C° 0 mm 4 mps 628 mmHg 55%
    15:00 +7°C° 0 mm 4 mps 628 mmHg 60%
    16:00 +5°C° 0.1 mm 4 mps 628 mmHg 67%
    17:00 +4°C° 0.1 mm 4 mps 627 mmHg 74%
    18:00 +3°C° 0.1 mm 3 mps 627 mmHg 82%
    19:00 +2°C° 0.1 mm 3 mps 627 mmHg 84%
    20:00 +2°C° 0.1 mm 3 mps 627 mmHg 87%
    21:00 +1°C° 0.1 mm 3 mps 627 mmHg 90%
    22:00 +1°C° 0.1 mm 3 mps 627 mmHg 90%
    23:00 +1°C° 0.1 mm 3 mps 627 mmHg 91%

    Tomorrow, 25 March, Monday

    Time Temperature Precipitation Wind Pressure Humidity
    00:00 0°C° 0.1 mm 3 mps 627 mmHg 91%
    01:00 0°C° 0.5 mm 3 mps 627 mmHg 92%
    02:00 0°C° 0.5 mm 3 mps 627 mmHg 92%
    03:00 -1°C° 0.5 mm 3 mps 627 mmHg 93%
    04:00 -1°C° 0.5 mm 3 mps 627 mmHg 92%
    05:00 -1°C° 0.5 mm 3 mps 627 mmHg 92%
    06:00 -2°C° 0.5 mm 4 mps 627 mmHg 92%
    07:00 -3°C° 0.5 mm 4 mps 627 mmHg 92%
    08:00 -3°C° 0.5 mm 4 mps 628 mmHg 91%
    09:00 -4°C° 0.5 mm 5 mps 628 mmHg 91%
    10:00 -3°C° 0.9 mm 4 mps 628 mmHg 91%
    11:00 -4°C° 0.9 mm 4 mps 628 mmHg 91%
    12:00 -4°C° 0.9 mm 4 mps 628 mmHg 91%
    13:00 -4°C° 0.7 mm 4 mps 628 mmHg 91%
    14:00 -4°C° 0.7 mm 4 mps 628 mmHg 91%
    15:00 -4°C° 0.7 mm 4 mps 627 mmHg 91%
    16:00 -4°C° 0.8 mm 4 mps 628 mmHg 92%
    17:00 -4°C° 0.8 mm 4 mps 628 mmHg 92%
    18:00 -4°C° 0.8 mm 4 mps 628 mmHg 92%
    19:00 -4°C° 0.6 mm 3 mps 629 mmHg 92%
    20:00 -4°C° 0.6 mm 3 mps 629 mmHg 92%
    21:00 -3°C° 0.6 mm 2 mps 630 mmHg 92%
    22:00 -3°C° 0.6 mm 2 mps 630 mmHg 92%
    23:00 -3°C° 0.6 mm 2 mps 630 mmHg 92%

    Day after tomorrow, 26 March, Tuesday

    Time Temperature Precipitation Wind Pressure Humidity
    00:00 -3°C° 0.6 mm 2 mps 630 mmHg 92%
    01:00 -3°C° 0.2 mm 2 mps 630 mmHg 93%
    02:00 -3°C° 0.2 mm 2 mps 630 mmHg 93%
    03:00 -3°C° 0.2 mm 2 mps 630 mmHg 93%
    04:00 -3°C° 0.1 mm 2 mps 630 mmHg 93%
    05:00 -3°C° 0.1 mm 2 mps 630 mmHg 94%
    06:00 -3°C° 0.1 mm 2 mps 630 mmHg 94%
    07:00 -2°C° 0.1 mm 2 mps 631 mmHg 93%
    08:00 -1°C° 0.1 mm 3 mps 631 mmHg 92%
    09:00 -1°C° 0.1 mm 3 mps 631 mmHg 91%
    10:00 -1°C° 0 mm 3 mps 631 mmHg 90%
    11:00 0°C° 0 mm 3 mps 631 mmHg 90%
    12:00 0°C° 0 mm 3 mps 630 mmHg 89%
    13:00 0°C° 0 mm 3 mps 630 mmHg 89%
    14:00 0°C° 0 mm 3 mps 630 mmHg 89%
    15:00 0°C° 0 mm 3 mps 630 mmHg 88%
    16:00 +1°C° 0 mm 2 mps 630 mmHg 89%
    17:00 +1°C° 0 mm 2 mps 630 mmHg 90%
    18:00 +1°C° 0 mm 1 mps 630 mmHg 91%
    19:00 +1°C° 0 mm 1 mps 630 mmHg 91%
    20:00 +1°C° 0 mm 1 mps 630 mmHg 91%
    21:00 +1°C° 0 mm 1 mps 630 mmHg 90%
    22:00 +1°C° 0.1 mm 1 mps 630 mmHg 90%
    23:00 +1°C° 0.1 mm 1 mps 629 mmHg 89%

    27 March, Wednesday

    Time Temperature Precipitation Wind Pressure Humidity
    00:00 0°C° 0.1 mm 0 mps 629 mmHg 89%
    01:00 0°C° 0.1 mm 0 mps 629 mmHg 89%
    02:00 0°C° 0.1 mm 0 mps 629 mmHg 89%
    03:00 0°C° 0.1 mm 0 mps 628 mmHg 90%
    04:00 +1°C° 0 mm 1 mps 628 mmHg 88%
    05:00 +1°C° 0 mm 1 mps 629 mmHg 87%
    06:00 +1°C° 0 mm 1 mps 629 mmHg 85%
    07:00 +2°C° 0 mm 1 mps 629 mmHg 82%
    08:00 +3°C° 0 mm 1 mps 630 mmHg 78%
    09:00 +5°C° 0 mm 1 mps 630 mmHg 74%
    10:00 +5°C° 0 mm 1 mps 630 mmHg 72%
    11:00 +6°C° 0 mm 1 mps 630 mmHg 69%
    12:00 +6°C° 0 mm 2 mps 630 mmHg 67%
    13:00 +6°C° 0 mm 2 mps 630 mmHg 66%
    14:00 +7°C° 0 mm 2 mps 630 mmHg 65%
    15:00 +7°C° 0 mm 2 mps 630 mmHg 64%
    16:00 +6°C° 0 mm 2 mps 630 mmHg 65%
    17:00 +6°C° 0 mm 1 mps 630 mmHg 66%
    18:00 +5°C° 0 mm 1 mps 630 mmHg 67%
    19:00 +5°C° 0 mm 1 mps 630 mmHg 67%
    20:00 +5°C° 0 mm 1 mps 631 mmHg 67%
    21:00 +5°C° 0 mm 1 mps 631 mmHg 67%
    22:00 +4°C° 0 mm 1 mps 631 mmHg 67%
    23:00 +4°C° 0 mm 1 mps 631 mmHg 66%

    28 March, Thursday

    Time Temperature Precipitation Wind Pressure Humidity
    00:00 +4°C° 0 mm 1 mps 631 mmHg 66%
    01:00 +4°C° 0.1 mm 1 mps 631 mmHg 66%
    02:00 +4°C° 0.1 mm 1 mps 631 mmHg 66%
    03:00 +4°C° 0.1 mm 1 mps 631 mmHg 66%
    04:00 +3°C° 0.1 mm 1 mps 631 mmHg 68%
    05:00 +2°C° 0.1 mm 0 mps 631 mmHg 71%
    06:00 +2°C° 0.1 mm 0 mps 632 mmHg 73%
    07:00 +3°C° 0.2 mm 1 mps 632 mmHg 73%
    08:00 +4°C° 0.2 mm 1 mps 633 mmHg 73%
    09:00 +4°C° 0.2 mm 2 mps 634 mmHg 74%
    10:00 +4°C° 0.2 mm 2 mps 633 mmHg 74%
    11:00 +3°C° 0.2 mm 3 mps 633 mmHg 74%
    12:00 +3°C° 0.2 mm 4 mps 633 mmHg 74%
    13:00 +3°C° 0.1 mm 4 mps 633 mmHg 75%
    14:00 +1°C° 0.1 mm 4 mps 633 mmHg 76%
    15:00 +1°C° 0.1 mm 4 mps 633 mmHg 76%
    16:00 0°C° 0.3 mm 4 mps 633 mmHg 81%
    17:00 -1°C° 0.3 mm 4 mps 633 mmHg 86%
    18:00 -2°C° 0.3 mm 4 mps 633 mmHg 91%
    19:00 -2°C° 0.9 mm 4 mps 633 mmHg 91%
    20:00 -3°C° 0.9 mm 4 mps 633 mmHg 92%
    21:00 -3°C° 0.9 mm 4 mps 634 mmHg 92%
    22:00 -2°C° 1 mm 3 mps 634 mmHg 92%
    23:00 -4°C° 1 mm 3 mps 633 mmHg 92%

    29 March, Friday

    Time Temperature Precipitation Wind Pressure Humidity
    00:00 -4°C° 1 mm 3 mps 633 mmHg 92%
    01:00 -4°C° 0.6 mm 3 mps 633 mmHg 92%
    02:00 -4°C° 0.6 mm 3 mps 633 mmHg 92%
    03:00 -4°C° 0.6 mm 3 mps 633 mmHg 92%
    04:00 -4°C° 0.4 mm 3 mps 633 mmHg 92%
    05:00 -5°C° 0.4 mm 3 mps 634 mmHg 92%
    06:00 -5°C° 0.4 mm 3 mps 634 mmHg 92%
    07:00 -4°C° 0.6 mm 3 mps 634 mmHg 91%
    08:00 -4°C° 0.6 mm 3 mps 635 mmHg 90%
    09:00 -2°C° 0.6 mm 3 mps 635 mmHg 90%
    10:00 -2°C° 0.6 mm 3 mps 635 mmHg 89%
    11:00 -2°C° 0.6 mm 3 mps 635 mmHg 88%
    12:00 -1°C° 0.6 mm 3 mps 634 mmHg 88%
    13:00 -1°C° 0.2 mm 3 mps 634 mmHg 88%
    14:00 -1°C° 0.2 mm 3 mps 634 mmHg 88%
    15:00 -1°C° 0.2 mm 3 mps 633 mmHg 88%
    16:00 -1°C° 0.1 mm 3 mps 633 mmHg 89%
    17:00 -2°C° 0.1 mm 3 mps 633 mmHg 90%
    18:00 -2°C° 0.1 mm 2 mps 633 mmHg 91%
    19:00 -2°C° 0.3 mm 2 mps 633 mmHg 91%
    20:00 -2°C° 0.3 mm 2 mps 633 mmHg 90%
    21:00 -2°C° 0.3 mm 2 mps 633 mmHg 89%
    22:00 0°C° 0.1 mm 1 mps 633 mmHg 89%
    23:00 0°C° 0.1 mm 1 mps 632 mmHg 89%
    Show more